Regional Weather Roundup
Issued by NWS

Home | Current Version | Previous Version | Graphics & Text | Print | Product List | Glossary On
Versions: 1 2 3 4 5 6 7 8 9 10 11 12 13 14 15 16 17 18 19 20 21 22 23 24 25 26 27 28 29 30 31 32 33 34 35 36 37 38 39 40 41 42 43 44 45 46 47 48 49 50
000
ASUS44 KMEG 281110
RWRTN
TENNESSEE HOURLY STATE WEATHER ROUNDUP
NATIONAL WEATHER SERVICE MEMPHIS TN
600 AM CDT SAT MAY 28 2016

TNZ002-004-019-021-049-052-054-088>092-281200-
WEST TENNESSEE

CITY           SKY/WX    TMP DP  RH WIND       PRES   REMARKS
MEMPHIS INTL   CLOUDY    71  65  81 S6        29.96R
NWS MEMPHIS      N/A     68 N/A N/A MISG        N/A
JACKSON        MOCLDY    68  64  87 SE5       29.99R
DYERSBURG      CLOUDY    68  64  88 SE3       29.97R
UNION CITY     PTCLDY    70  66  88 SE7       29.97R
PARIS          PTCLDY    66  63  88 SE5       30.00R
LEXINGTON      PTCLDY    70  64  83 CALM      30.01R
$$

TNZ008-025-027-028-033-062-065-066-281200-
NORTH MIDDLE TENNESSEE

CITY           SKY/WX    TMP DP  RH WIND       PRES   REMARKS
NASHVILLE      CLOUDY    73  63  70 SE7       30.04R
CLARKSVILLE    CLOUDY    70  65  84 SE5       30.01R
SMYRNA         CLOUDY    71  66  84 SE5       30.05R
COOKEVILLE     PTCLDY    72  63  73 S5        30.07S
CROSSVILLE     CLEAR     67  59  75 S5        30.14R
$$

TNZ061-075-076-078-094-096-097-281200-
SOUTH MIDDLE TENNESSEE

CITY           SKY/WX    TMP DP  RH WIND       PRES   REMARKS
FAYETTEVILLE   PTCLDY    72  63  73 SE6       30.05R
TULLAHOMA      CLEAR     68  66  94 SE3       30.07R
WINCHESTER     CLEAR     72  63  73 S8        30.07R
MCMINNVILLE    PTCLDY    73  63  68 SE6       30.07S
COLUMBIA       CLEAR     73  73 100 S5        30.02R
SHELBYVILLE    CLEAR     72  66  83 SE6       30.06R
$$

TNZ017-018-042-046-047-281200-
NORTHEAST TENNESSEE

CITY           SKY/WX    TMP DP  RH WIND       PRES   REMARKS
TRI CITIES     PTCLDY    60  60 100 CALM      30.16S FOG
$$

TNZ012-013-036-069-073-074-281200-
CENTRAL EAST TENNESSEE

CITY           SKY/WX    TMP DP  RH WIND       PRES   REMARKS
KNOXVILLE      FOG       64  64 100 CALM      30.11R VSB 1/4
OAK RIDGE      FOG       66  64  93 CALM      30.14R VSB 1/4
GATLINBURG     CLOUDY    61  61 100 CALM      30.12R VSB 1/2
$$

TNZ083-085-099-281200-
SOUTHEAST TENNESSEE

CITY           SKY/WX    TMP DP  RH WIND       PRES   REMARKS
CHATTANOOGA    PTCLDY    66  62  87 E3        30.10R
$$

SKY/WX REPORTED AS FAIR MEANS FEW OR NO CLOUDS BELOW
12 THOUSAND FEET.





USA.gov is the U.S. government's official web portal to all federal, state and local government web resources and services.